Date,TemperatureHighF,TemperatureAvgF,TemperatureLowF,DewpointHighF,DewpointAvgF,DewpointLowF,HumidityHigh,HumidityAvg,HumidityLow,PressureMaxIn,PressureMinIn,WindSpeedMaxMPH,WindSpeedAvgMPH,GustSpeedMaxMPH,PrecipitationSumIn
2013-1-1,37,6,35,30,-77,-100,79,13,74,30.31,30.21,6,-822,0,0.00
2013-1-2,39,6,36,29,-78,-100,69,11,64,30.21,30.06,4,-829,0,0.01
2013-1-3,36,5,33,29,-82,-100,78,10,69,30.15,30.01,1,-861,0,0.00
2013-1-4,48,7,45,45,-79,-100,100,13,86,30.21,30.05,3,-853,0,0.00
2013-1-5,-200,0,200,-100,-100,-100,0,0,100,30.09,30.04,0,-999,0,0.00
2013-1-6,45,9,41,42,-71,-100,96,19,90,30.11,29.99,0,-797,0,0.00
2013-1-7,-200,0,200,-100,-100,-100,0,0,100,30.11,29.94,0,-999,0,0.00
2013-1-8,51,25,48,51,-25,-100,100,50,91,30.11,29.82,3,-494,0,0.00
2013-1-9,48,40,34,46,40,33,99,96,91,29.89,29.64,9,0,0,0.31
2013-1-10,41,35,32,41,35,32,100,97,89,30.02,29.88,3,0,0,0.07
2013-1-11,37,34,30,34,30,25,97,86,68,30.20,30.01,5,1,0,0.01
2013-1-12,31,27,22,30,26,21,96,94,84,30.31,30.19,3,0,0,0.00
2013-1-13,27,26,24,27,25,24,97,96,93,30.39,30.30,3,0,0,0.00
2013-1-14,35,29,25,30,27,24,96,91,82,30.47,30.39,3,0,0,0.00
2013-1-15,38,34,32,36,33,30,96,93,88,30.54,30.45,4,1,0,0.00
2013-1-16,33,32,30,33,31,30,99,98,95,30.55,30.39,3,0,0,0.00
2013-1-17,32,31,29,32,31,29,99,99,98,30.39,30.22,5,0,0,0.00
2013-1-18,34,31,28,34,31,28,100,99,98,30.23,30.18,2,0,0,0.00
2013-1-19,31,29,27,31,29,26,99,98,97,30.24,30.18,2,0,0,0.01
2013-1-20,31,28,26,31,28,25,99,98,96,30.26,30.15,2,0,0,0.00
2013-1-21,30,27,25,29,27,24,98,97,96,30.18,30.06,2,0,0,0.00
2013-1-22,31,28,24,30,27,24,99,97,96,30.06,29.85,2,0,0,0.01
2013-1-23,37,32,30,37,33,30,100,100,99,30.09,29.79,1,0,0,0.07
2013-1-24,41,35,31,41,35,31,100,100,100,30.11,30.02,1,0,0,0.28
2013-1-25,50,45,37,50,45,37,100,100,100,30.05,29.87,2,0,0,0.07
2013-1-26,44,39,37,44,39,37,100,100,100,30.00,29.86,4,0,0,0.29
2013-1-27,42,38,35,42,38,35,100,100,100,30.07,29.97,1,0,0,0.18
2013-1-28,42,40,36,43,40,36,100,100,100,30.14,30.00,4,0,0,0.09
2013-1-29,46,43,40,46,43,40,100,100,98,30.40,30.14,7,0,0,0.03
2013-1-30,48,44,40,48,44,40,100,100,98,30.40,30.34,2,0,0,0.05
2013-1-31,50,46,42,47,44,42,100,94,85,30.35,30.22,1,0,0,0.00
2013-2-1,50,44,39,47,42,39,100,92,79,30.24,30.13,7,1,0,0.01
2013-2-2,42,37,33,42,37,33,100,99,94,30.22,30.16,0,0,0,0.00
2013-2-3,45,42,35,45,42,35,100,98,92,30.23,30.13,2,0,0,0.01
2013-2-4,50,44,40,44,42,40,99,92,78,30.13,29.86,1,0,0,0.00
2013-2-5,48,44,40,48,43,40,100,97,90,29.97,29.83,3,0,0,0.18
2013-2-6,49,43,39,47,42,39,100,97,86,30.00,29.75,6,0,0,0.11
2013-2-7,44,38,34,43,38,34,100,96,91,30.01,29.84,3,0,0,0.05
2013-2-8,42,37,30,38,35,29,100,93,80,30.18,30.03,2,0,0,0.01
2013-2-9,44,40,36,41,38,34,99,92,82,30.20,30.16,1,0,0,0.02
2013-2-10,44,42,40,42,40,37,100,93,83,30.23,30.19,3,0,0,0.01
2013-2-11,47,43,40,43,39,36,96,85,70,30.29,30.20,1,0,0,0.00
2013-2-12,53,47,43,49,44,42,99,92,80,30.38,30.29,7,1,0,0.02
2013-2-13,52,47,44,48,44,41,98,89,76,30.39,30.33,5,0,0,0.00
2013-2-14,55,47,40,46,42,39,95,84,67,30.44,30.34,6,1,0,0.00
2013-2-15,52,45,38,45,42,38,99,91,77,30.35,30.12,11,2,0,0.00
2013-2-16,51,43,35,46,40,35,100,91,72,30.19,30.11,9,0,0,0.01
2013-2-17,44,40,36,39,35,32,96,81,65,30.19,29.98,2,0,0,0.00
2013-2-18,46,39,33,40,36,32,98,89,73,29.98,29.63,2,0,0,0.04
2013-2-19,48,41,36,42,38,35,99,90,67,29.89,29.55,4,0,0,0.11
2013-2-20,47,40,35,43,38,34,99,92,72,30.01,29.90,5,0,0,0.13
2013-2-21,43,39,35,42,39,35,100,98,93,30.13,30.02,2,0,0,0.06
2013-2-22,44,41,37,44,41,36,100,97,86,30.10,29.84,10,1,0,0.60
2013-2-23,46,39,35,41,36,34,99,90,67,30.35,30.01,5,0,0,0.12
2013-2-24,50,41,33,39,35,32,99,83,54,30.35,29.99,1,0,0,0.00
2013-2-25,46,40,34,43,38,34,99,94,69,30.30,29.97,6,1,0,0.47
2013-2-26,47,39,32,39,36,32,99,88,65,30.30,30.15,2,0,0,0.00
2013-2-27,50,44,39,45,41,37,99,91,77,30.21,30.13,0,0,0,0.06
2013-2-28,57,50,45,55,49,45,100,97,88,30.35,30.11,1,0,0,0.02
2013-3-1,59,53,49,53,50,47,99,90,74,30.36,30.21,1,0,0,0.00
2013-3-2,53,49,42,50,46,37,99,90,76,30.21,30.08,5,0,0,0.00
2013-3-3,48,42,37,37,33,30,88,70,51,30.21,30.11,10,2,0,0.00
2013-3-4,51,42,34,40,35,31,94,76,57,30.10,29.80,11,1,0,0.00
2013-3-5,46,42,39,45,41,34,99,96,74,29.80,29.52,4,0,0,0.36
2013-3-6,45,42,38,45,41,38,99,99,96,29.86,29.44,2,0,0,0.33
2013-3-7,53,43,35,41,37,34,99,81,50,29.94,29.86,5,0,0,0.01
2013-3-8,54,45,36,41,37,34,96,77,47,30.10,29.91,9,1,0,0.00
2013-3-9,57,46,36,44,38,34,98,77,51,30.39,30.10,3,0,0,0.00
2013-3-10,55,46,38,47,41,35,94,82,67,30.38,30.30,2,0,0,0.00
2013-3-11,57,50,46,51,47,45,97,90,76,30.31,30.14,4,0,0,0.00
2013-3-12,60,51,44,51,47,43,100,86,69,30.14,30.06,4,0,0,0.00
2013-3-13,63,53,45,51,47,43,93,80,64,30.12,29.98,5,0,0,0.00
2013-3-14,58,52,45,50,46,42,92,80,64,30.11,29.95,3,0,0,0.00
2013-3-15,62,53,47,51,48,45,96,82,62,30.12,30.06,7,1,0,0.00
2013-3-16,49,45,38,47,43,36,98,94,84,30.09,29.93,16,0,0,0.17
2013-3-17,49,40,34,41,35,33,99,84,61,30.22,30.08,13,1,0,0.02
2013-3-18,51,43,33,38,34,32,96,73,48,30.20,30.02,9,2,0,0.00
2013-3-19,47,43,38,46,40,34,99,88,71,30.02,29.58,9,0,0,0.62
2013-3-20,50,45,35,50,44,34,100,95,77,30.09,29.47,11,1,0,0.62
2013-3-21,48,39,34,42,36,33,99,90,67,30.24,30.09,9,1,0,0.19
2013-3-22,46,37,33,41,34,30,98,90,72,30.29,30.21,3,0,0,0.14
2013-3-23,47,40,32,36,31,25,96,74,51,30.29,30.15,6,1,0,0.01
2013-3-24,52,45,37,39,34,28,84,67,56,30.15,29.97,6,1,0,0.00
2013-3-25,57,48,40,43,37,32,83,66,54,29.97,29.81,4,0,0,0.00
2013-3-26,53,48,43,47,44,39,98,87,72,29.91,29.85,2,0,0,0.08
2013-3-27,61,50,43,53,47,43,99,90,63,29.89,29.80,1,0,0,0.09
2013-3-28,62,53,47,51,48,46,97,84,61,30.02,29.88,9,0,0,0.01
2013-3-29,64,56,48,53,50,47,98,81,63,30.09,30.02,11,1,0,0.00
2013-3-30,72,61,49,53,48,44,84,65,47,30.05,29.83,9,2,0,0.00
2013-3-31,72,59,48,56,50,46,97,75,50,29.91,29.81,14,1,0,0.00
2013-4-1,60,54,47,52,50,46,96,86,75,30.07,29.91,6,0,0,0.00
2013-4-2,66,54,46,53,48,45,98,82,60,30.11,30.02,3,0,0,0.00
2013-4-3,62,53,44,53,48,44,99,87,68,30.05,29.79,3,0,0,0.00
2013-4-4,59,54,50,58,52,48,99,93,79,29.80,29.59,6,0,0,0.22
2013-4-5,55,51,50,55,50,49,100,97,91,29.87,29.73,2,0,0,0.26
2013-4-6,56,49,45,52,48,45,100,96,77,29.91,29.65,1,0,0,0.88
2013-4-7,49,45,39,48,43,38,100,92,74,29.88,29.51,6,1,0,0.16
2013-4-8,54,44,37,48,41,37,98,88,66,30.18,29.88,7,0,0,0.12
2013-4-9,58,48,41,46,42,38,93,80,58,30.25,30.14,1,0,0,0.00
2013-4-10,59,51,42,54,46,38,98,85,65,30.24,30.07,9,1,0,0.06
2013-4-11,55,47,38,42,39,36,97,77,55,30.24,30.07,6,0,0,0.00
2013-4-12,58,48,39,47,42,35,97,80,63,30.04,29.79,5,0,0,0.05
2013-4-13,50,43,37,43,38,36,98,83,59,30.02,29.87,7,1,0,0.11
2013-4-14,49,42,38,43,40,36,99,92,77,30.01,29.83,5,0,0,0.19
2013-4-15,53,44,38,41,38,34,95,80,52,30.07,29.85,6,1,0,0.03
2013-4-16,58,47,39,43,39,36,93,74,49,30.28,30.08,11,1,0,0.00
2013-4-17,56,47,37,46,40,36,98,79,53,30.39,30.28,5,0,0,0.00
2013-4-18,62,52,42,49,43,39,90,74,55,30.37,30.23,5,0,0,0.00
2013-4-19,57,50,47,53,48,45,99,92,76,30.23,30.09,12,1,0,0.24
2013-4-20,61,51,44,47,44,41,98,79,55,30.24,30.15,4,0,0,0.01
2013-4-21,58,49,43,49,44,41,94,82,67,30.20,30.14,6,0,0,0.00
2013-4-22,62,53,43,43,38,30,86,60,32,30.27,30.20,16,5,0,0.00
2013-4-23,67,56,44,42,34,29,70,45,27,30.23,30.02,11,3,0,0.00
2013-4-24,72,61,49,41,33,28,51,36,23,30.09,29.89,11,3,0,0.00
2013-4-25,73,62,50,51,43,31,68,50,33,30.01,29.89,5,1,0,0.00
2013-4-26,76,63,48,55,46,36,85,57,27,30.12,30.02,6,0,0,0.00
2013-4-27,71,60,48,46,39,30,84,49,25,30.15,30.09,7,1,0,0.00
2013-4-28,66,56,49,52,46,43,91,73,45,30.18,30.01,3,0,0,0.00
2013-4-29,59,51,41,49,41,32,98,70,45,30.12,30.00,5,1,0,0.06
2013-4-30,56,46,37,41,35,31,87,67,43,30.30,30.12,6,0,0,0.00
2013-5-1,66,53,40,41,35,31,77,55,32,30.38,30.29,9,3,0,0.00
2013-5-2,76,64,51,43,36,30,46,36,23,30.30,30.11,8,2,0,0.00
2013-5-3,76,65,53,49,41,33,57,42,27,30.16,29.98,15,5,0,0.00
2013-5-4,80,69,58,49,39,33,52,35,21,29.98,29.74,18,5,0,0.00
2013-5-5,82,73,60,46,38,32,61,30,23,29.74,29.53,15,6,0,0.00
2013-5-6,76,62,50,55,49,45,87,65,43,29.79,29.65,6,1,0,0.00
2013-5-7,70,57,47,55,49,46,96,76,52,29.93,29.80,6,0,0,0.00
2013-5-8,68,55,46,57,50,44,97,82,64,30.03,29.93,5,0,0,0.00
2013-5-9,78,62,46,58,52,45,98,72,36,30.07,29.95,11,1,0,0.00
2013-5-10,79,66,54,61,54,50,91,69,44,30.07,29.99,4,0,0,0.00
2013-5-11,80,65,52,63,55,49,93,71,49,30.08,29.90,6,0,0,0.00
2013-5-12,73,63,57,61,55,51,93,76,56,30.01,29.95,3,0,0,0.00
2013-5-13,68,57,50,57,52,44,97,82,57,30.11,29.95,12,1,0,0.02
2013-5-14,66,55,46,49,43,34,89,65,44,30.11,29.99,4,0,0,0.00
2013-5-15,59,52,47,52,46,37,93,81,58,30.01,29.91,1,0,0,0.09
2013-5-16,60,54,48,54,51,45,98,88,69,29.91,29.84,3,0,0,0.10
2013-5-17,63,54,47,52,47,44,96,78,56,30.00,29.89,9,0,0,0.00
2013-5-18,60,53,48,53,50,45,97,88,75,30.17,30.00,3,0,0,0.03
2013-5-19,64,56,51,52,49,46,97,77,55,30.29,30.17,7,1,0,0.00
2013-5-20,71,57,48,52,46,34,87,68,46,30.21,29.82,9,2,0,0.00
2013-5-21,51,46,39,49,44,39,98,94,72,29.91,29.74,5,0,0,0.56
2013-5-22,50,44,39,49,44,39,99,97,93,29.91,29.85,4,0,0,0.22
2013-5-23,53,48,44,51,47,43,99,96,83,29.92,29.89,2,0,0,0.21
2013-5-24,57,50,45,51,47,44,99,92,76,29.98,29.89,6,0,0,0.05
2013-5-25,65,54,44,52,47,43,98,80,55,29.98,29.82,3,0,0,0.07
2013-5-26,63,54,51,55,51,47,99,88,67,29.94,29.84,3,0,0,0.06
2013-5-27,62,54,49,60,52,47,99,94,81,29.88,29.64,3,0,0,0.43
2013-5-28,62,54,50,55,50,47,99,87,65,29.83,29.65,4,0,0,0.24
2013-5-29,62,53,47,55,50,45,100,92,70,29.97,29.53,6,1,0,0.27
2013-5-30,60,53,46,52,47,43,98,82,60,30.14,29.97,4,0,0,0.03
2013-5-31,66,56,46,51,47,44,95,71,52,30.21,30.11,7,1,0,0.00
2013-6-1,74,61,49,58,51,46,94,71,49,30.12,29.91,6,1,0,0.00
2013-6-2,68,60,53,55,52,49,90,76,54,29.96,29.91,7,1,0,0.00
2013-6-3,73,61,47,54,51,46,95,72,41,29.98,29.90,6,1,0,0.00
2013-6-4,78,65,54,57,49,44,72,58,33,29.95,29.85,9,2,0,0.00
2013-6-5,81,71,57,61,56,53,88,61,40,29.95,29.84,6,1,0,0.00
2013-6-6,81,68,56,61,56,49,91,67,47,29.93,29.86,5,1,0,0.00
2013-6-7,78,64,53,61,53,48,88,69,40,30.01,29.93,3,0,0,0.00
2013-6-8,78,65,53,54,49,40,82,59,28,30.04,29.92,7,2,0,0.00
2013-6-9,72,62,54,54,49,45,78,63,44,29.98,29.85,12,3,0,0.00
2013-6-10,70,58,48,51,46,42,78,65,49,29.89,29.78,10,2,0,0.00
2013-6-11,64,56,50,49,46,44,83,70,52,30.04,29.89,6,0,0,0.00
2013-6-12,64,55,47,51,47,44,90,76,57,30.07,30.03,5,0,0,0.00
2013-6-21,67,63,59,54,46,-100,75,66,63,30.00,29.99,3,0,0,0.00
2013-6-22,79,65,53,57,51,45,93,64,35,29.99,29.75,4,0,0,0.00
2013-6-23,71,62,58,63,58,49,98,88,62,29.75,29.54,3,0,0,0.29
2013-6-24,64,57,52,57,54,51,98,90,71,29.61,29.57,2,0,0,0.06
2013-6-25,65,59,55,62,57,54,99,93,79,29.75,29.57,3,0,0,0.29
2013-6-26,70,62,57,62,58,56,99,88,65,29.92,29.75,2,0,0,0.15
2013-6-27,80,69,60,65,60,56,90,76,55,30.03,29.90,3,0,0,0.00
2013-6-28,87,73,61,69,62,53,96,69,43,30.02,29.91,11,0,0,0.00
2013-6-29,86,74,62,66,59,55,80,62,44,29.99,29.84,3,1,0,0.00
2013-6-30,90,77,64,71,63,60,88,65,43,29.85,29.73,5,0,0,0.00
2013-7-1,88,74,61,70,63,58,91,70,50,29.88,29.79,3,0,0,0.00
2013-7-2,87,75,61,70,63,54,93,68,47,29.95,29.88,4,0,0,0.00
2013-7-3,84,71,58,60,53,45,84,55,29,30.00,29.90,7,1,0,0.00
2013-7-4,77,64,53,58,52,48,87,67,44,30.02,29.89,9,1,0,0.00
2013-7-5,75,63,52,57,52,47,84,68,44,29.95,29.82,7,1,0,0.00
2013-7-6,76,62,51,59,54,50,96,77,52,29.85,29.74,9,1,0,0.00
2013-7-7,79,65,54,61,56,52,98,75,50,29.86,29.76,7,1,0,0.00
2013-7-8,81,64,52,59,54,51,96,72,35,29.95,29.86,8,1,0,0.00
2013-7-9,89,74,60,62,58,54,83,59,31,29.95,29.84,9,2,0,0.00
2013-7-10,83,68,56,60,55,49,88,64,38,29.94,29.80,6,1,0,0.00
2013-7-11,75,62,51,53,48,43,88,63,32,29.96,29.83,9,2,0,0.00
2013-7-12,76,63,52,53,48,43,79,61,34,29.97,29.87,7,1,0,0.00
2013-7-13,79,67,54,51,44,37,69,47,23,30.03,29.89,14,4,0,0.00
2013-7-14,86,73,59,56,48,43,66,45,22,29.96,29.82,7,2,0,0.00
2013-7-15,84,72,58,54,48,42,68,44,31,29.86,29.67,12,2,0,0.00
2013-7-16,78,68,59,61,54,45,84,62,36,29.89,29.64,11,1,0,0.00
2013-7-17,79,65,58,57,54,53,86,71,43,30.04,29.90,4,0,0,0.00
2013-7-18,84,68,54,60,54,47,94,67,28,30.07,29.94,7,1,0,0.00
2013-7-19,86,68,53,62,56,51,95,68,40,30.01,29.88,5,1,0,0.00
2013-7-20,82,66,52,61,56,51,96,72,46,29.95,29.81,7,1,0,0.00
2013-7-21,85,71,56,61,54,49,83,59,35,29.85,29.75,8,1,0,0.00
2013-7-22,84,71,56,57,54,49,91,59,29,29.90,29.80,10,2,0,0.00
2013-7-23,91,75,62,60,57,51,86,58,26,29.90,29.80,10,2,0,0.00
2013-7-24,90,77,63,60,55,47,80,50,24,29.89,29.82,7,1,0,0.00
2013-7-25,89,78,64,57,52,46,74,44,23,29.94,29.86,11,3,0,0.00
2013-7-26,90,74,62,57,48,41,61,41,24,30.01,29.90,7,1,0,0.00
2013-7-27,82,66,54,55,48,43,77,54,30,30.05,29.88,8,1,0,0.00
2013-7-28,77,63,50,57,51,46,94,68,43,29.95,29.83,5,0,0,0.00
2013-7-29,77,63,54,56,52,49,84,69,45,29.91,29.82,6,1,0,0.00
2013-7-30,80,64,51,61,55,50,96,73,43,30.01,29.92,8,0,0,0.00
2013-7-31,72,61,55,60,56,53,95,82,63,30.00,29.92,9,1,0,0.00
2013-8-1,64,60,56,56,54,52,88,80,73,30.02,29.95,5,0,0,0.00
2013-8-2,73,63,55,56,54,52,92,73,51,30.03,29.96,7,1,0,0.00
2013-8-3,81,68,57,59,56,51,92,67,37,29.98,29.84,9,2,0,0.00
2013-8-4,88,72,60,63,59,55,90,65,34,29.89,29.77,9,1,0,0.00
2013-8-5,88,72,58,64,59,55,91,65,40,29.88,29.77,5,0,0,0.00
2013-8-6,91,76,62,58,50,41,78,46,18,29.86,29.77,6,1,0,0.00
2013-8-7,73,63,55,59,53,47,87,71,41,29.92,29.81,2,0,0,0.00
2013-8-8,83,64,51,63,55,50,98,76,40,29.94,29.78,8,0,0,0.00
2013-8-9,84,70,63,63,60,56,93,71,39,29.82,29.70,6,0,0,0.01
2013-8-10,73,63,56,60,57,54,95,81,62,29.93,29.79,5,0,0,0.04
2013-8-11,72,62,55,59,56,53,92,81,62,29.95,29.87,5,0,0,0.00
2013-8-12,76,63,56,59,55,51,92,78,51,29.96,29.90,4,0,0,0.00
2013-8-13,84,67,51,58,53,50,95,65,33,29.98,29.81,6,1,0,0.00
2013-8-14,84,68,56,61,55,48,86,66,28,29.85,29.81,3,0,0,0.00
2013-8-15,78,69,64,67,63,61,93,81,64,29.85,29.82,4,0,0,0.00
2013-8-16,82,70,63,67,62,50,95,77,52,29.93,29.84,4,0,0,0.00
2013-8-17,80,68,56,62,56,52,87,69,45,29.97,29.90,6,1,0,0.00
2013-8-18,84,68,57,62,58,56,98,74,43,30.01,29.90,4,0,0,0.00
2013-8-19,84,72,61,62,58,54,84,64,41,29.99,29.89,8,1,0,0.00
2013-8-20,82,70,58,54,48,37,69,50,20,30.00,29.84,12,5,0,0.00
2013-8-21,87,73,60,58,52,47,69,49,29,29.87,29.72,9,2,0,0.00
2013-8-22,81,70,60,63,57,53,95,65,47,29.79,29.72,3,0,0,0.04
2013-8-23,74,62,55,59,56,54,96,81,55,29.83,29.77,4,0,0,0.00
2013-8-24,74,65,59,59,56,52,90,74,52,29.80,29.73,4,0,0,0.00
2013-8-25,66,60,56,61,56,51,94,83,73,29.81,29.77,4,0,0,0.04
2013-8-26,77,63,53,57,54,50,97,75,41,29.85,29.79,6,0,0,0.00
2013-8-27,82,68,60,62,58,55,88,72,45,29.84,29.68,6,0,0,0.00
2013-8-28,80,68,60,63,61,59,99,79,51,29.79,29.72,3,0,0,0.04
2013-8-29,72,66,62,69,63,60,96,89,79,29.96,29.73,3,0,0,0.12
2013-8-30,80,70,60,62,59,57,97,72,48,30.02,29.91,5,0,0,0.00
2013-8-31,87,71,60,62,57,53,85,63,38,29.91,29.70,6,1,0,0.00
2013-9-1,83,67,54,58,55,52,94,68,38,29.79,29.69,5,0,0,0.00
2013-9-2,77,68,62,61,57,53,84,69,46,29.82,29.76,3,0,0,0.00
2013-9-3,79,68,60,57,55,51,81,65,43,29.89,29.81,9,0,0,0.00
2013-9-4,74,65,58,59,56,53,88,73,52,29.93,29.88,4,0,0,0.00
2013-9-5,69,61,58,60,58,56,99,89,71,29.95,29.87,4,0,0,1.59
2013-9-6,70,62,57,63,59,55,100,91,65,30.04,29.95,3,0,0,0.30
2013-9-7,76,64,53,61,57,52,100,81,56,29.98,29.84,7,1,0,0.00
2013-9-8,83,72,60,63,60,57,94,68,43,29.94,29.85,15,2,0,0.00
2013-9-9,83,73,64,64,61,58,88,68,48,29.89,29.77,10,2,0,0.00
2013-9-10,88,76,63,65,62,57,88,64,42,29.78,29.63,9,2,0,0.00
2013-9-11,86,73,60,67,60,55,88,65,48,29.83,29.67,3,0,0,0.00
2013-9-12,79,64,55,65,59,55,99,83,57,29.88,29.79,4,0,0,0.00
2013-9-13,79,64,57,65,60,55,98,85,62,29.85,29.71,6,0,0,0.00
2013-9-14,74,64,58,65,60,58,99,90,70,29.73,29.59,5,0,0,0.00
2013-9-15,66,61,58,62,58,56,98,91,84,29.80,29.62,4,0,0,0.01
2013-9-16,69,61,56,61,57,54,96,85,68,29.87,29.78,4,0,0,0.01
2013-9-17,67,61,56,57,54,50,92,78,57,29.91,29.74,11,1,0,0.02
2013-9-18,70,61,53,56,51,46,98,72,44,29.99,29.88,5,0,0,0.00
2013-9-19,76,61,49,56,51,47,93,70,43,29.87,29.67,2,0,0,0.00
2013-9-20,70,58,50,59,54,47,99,85,60,29.67,29.56,2,0,0,0.10
2013-9-21,62,57,53,59,56,52,100,96,81,29.69,29.57,1,0,0,0.09
2013-9-22,59,55,52,58,54,51,99,97,93,29.78,29.59,3,0,0,0.07
2013-9-23,62,56,53,58,55,53,100,97,85,29.89,29.79,2,0,0,0.35
2013-9-24,58,52,48,56,52,48,99,98,87,29.87,29.76,2,0,0,0.36
2013-9-25,57,51,46,54,49,46,99,93,79,29.93,29.76,3,0,0,0.21
2013-9-26,62,52,45,53,48,44,99,86,62,30.07,29.93,4,0,0,0.00
2013-9-27,54,51,45,54,50,45,100,98,89,30.07,29.84,1,0,0,0.29
2013-9-28,60,56,51,60,56,51,100,100,98,29.84,29.43,6,0,0,1.45
2013-9-29,54,52,51,54,52,51,100,100,99,29.60,29.34,5,0,0,1.40
2013-9-30,56,51,48,56,50,47,100,98,87,29.91,29.54,4,0,0,0.33
2013-10-1,57,50,44,55,48,43,100,93,69,30.09,29.89,3,0,0,0.42
2013-10-2,53,46,40,51,45,40,100,97,88,30.08,29.97,3,0,0,0.16
2013-10-3,56,46,38,51,43,38,100,90,66,30.30,30.08,5,0,0,0.00
2013-10-4,60,50,40,50,44,39,100,83,60,30.33,30.22,4,0,0,0.00
2013-10-5,65,54,43,52,47,42,99,80,55,30.22,30.02,5,0,0,0.00
2013-10-6,70,55,45,56,49,44,100,81,48,30.02,29.87,3,0,0,0.00
2013-10-7,60,53,48,52,49,46,98,88,68,30.05,29.89,6,0,0,0.04
2013-10-8,54,50,46,52,48,41,98,91,78,30.06,29.89,0,0,0,0.02
2013-10-9,58,49,42,45,42,40,94,78,55,29.97,29.86,7,2,0,0.00
2013-10-10,60,51,43,51,46,42,98,86,64,29.98,29.84,2,0,0,0.00
2013-10-11,56,51,47,48,45,42,93,79,64,30.02,29.98,1,0,0,0.00
2013-10-12,55,49,45,49,46,44,97,88,76,30.04,29.95,3,0,0,0.00
2013-10-13,57,50,44,48,45,43,97,84,67,30.17,30.04,5,1,0,0.00
2013-10-14,62,54,44,48,44,41,89,69,53,30.23,30.14,10,2,0,0.00
2013-10-15,64,56,45,44,41,38,82,59,43,30.16,30.00,6,2,0,0.00
2013-10-16,63,53,43,50,45,40,92,74,56,30.04,29.99,2,0,0,0.00
2013-10-17,60,51,42,51,47,42,99,86,63,30.10,30.02,4,0,0,0.00
2013-10-18,65,54,40,49,45,40,98,75,51,30.05,29.96,8,0,0,0.00
2013-10-19,64,54,41,52,46,40,97,78,62,30.04,29.98,2,0,0,0.00
2013-10-20,62,52,41,53,48,41,99,86,66,30.03,29.94,2,0,0,0.00
2013-10-21,65,53,42,54,48,41,99,86,61,29.96,29.86,2,0,0,0.00
2013-10-22,66,55,43,54,50,43,99,85,58,29.93,29.84,2,0,0,0.00
2013-10-23,63,54,46,56,52,46,100,92,73,29.89,29.83,1,0,0,0.01
2013-10-24,56,51,45,53,50,45,100,97,88,29.97,29.86,0,0,0,0.01
2013-10-25,50,48,45,50,48,45,100,99,98,30.16,29.98,4,0,0,0.00
2013-10-26,50,49,47,49,48,46,100,96,91,30.17,30.06,4,1,0,0.01
2013-10-27,54,50,48,52,46,42,99,86,66,30.06,29.72,17,2,0,0.12
2013-10-28,55,51,44,43,38,29,78,62,47,29.79,29.68,17,4,0,0.00
2013-10-29,54,45,33,38,32,29,92,63,42,29.96,29.79,3,0,0,0.00
2013-10-30,57,46,35,44,39,33,95,76,57,30.08,29.95,3,0,0,0.00
2013-10-31,56,52,49,52,48,43,99,87,73,30.15,30.06,1,0,0,0.01
2013-11-1,55,50,47,51,49,47,100,95,81,30.15,29.82,4,0,0,0.01
2013-11-2,53,48,42,50,46,42,99,94,77,29.99,29.69,12,1,0,0.51
2013-11-3,49,44,39,45,42,39,99,94,82,30.08,29.98,2,0,0,0.03
2013-11-4,48,45,42,47,45,41,99,98,94,30.07,30.01,2,0,0,0.16
2013-11-5,52,50,46,52,50,46,100,100,99,30.14,29.98,2,0,0,0.36
2013-11-6,57,53,51,57,53,51,100,100,98,30.16,29.98,2,0,0,0.05
2013-11-7,54,49,43,54,49,43,100,98,90,30.04,29.81,9,0,0,0.44
2013-11-8,51,46,44,49,46,44,100,97,89,30.10,29.99,3,0,0,0.04
2013-11-9,46,44,42,44,43,42,99,96,89,30.00,29.92,3,0,0,0.00
2013-11-10,52,46,42,48,45,41,99,96,86,29.97,29.93,2,0,0,0.00
2013-11-11,48,44,40,49,44,40,100,100,98,30.02,29.91,1,0,0,0.00
2013-11-12,54,50,45,55,50,45,100,100,100,30.31,29.99,0,0,0,0.21
2013-11-13,50,48,45,50,48,44,100,100,97,30.36,30.18,6,0,0,0.01
2013-11-14,51,46,44,48,45,43,100,97,88,30.18,29.99,2,0,0,0.08
2013-11-15,46,43,39,46,43,39,100,99,98,29.99,29.54,3,0,0,0.11
2013-11-16,49,45,43,47,44,42,100,93,79,29.77,29.49,3,0,0,0.08
2013-11-17,52,46,41,49,45,41,100,95,86,29.91,29.77,3,0,0,0.00
2013-11-18,49,46,43,49,46,42,100,96,88,29.89,29.65,2,0,0,0.21
2013-11-19,53,48,40,53,47,32,100,96,72,29.89,29.62,7,1,0,0.14
2013-11-20,43,38,34,33,29,22,83,71,59,30.23,29.89,16,5,0,0.00
2013-11-21,43,37,32,23,16,11,63,43,32,30.43,30.23,11,3,0,0.00
2013-11-22,45,38,28,23,18,13,72,47,35,30.43,30.25,8,1,0,0.00
2013-11-23,48,41,34,27,22,16,67,48,40,30.25,30.04,4,0,0,0.00
2013-11-24,46,39,32,31,27,21,78,63,52,30.16,30.04,2,0,0,0.00
2013-11-25,45,38,30,36,33,28,95,83,70,30.23,30.16,0,0,0,0.00
2013-11-26,44,38,29,39,35,28,99,91,83,30.17,29.96,1,0,0,0.00
2013-11-27,46,40,32,39,36,32,99,86,70,29.96,29.84,1,0,0,0.00
2013-11-28,47,40,34,37,34,32,95,81,64,30.09,29.90,1,0,0,0.00
2013-11-29,43,38,30,40,36,29,99,93,86,30.26,30.09,2,0,0,0.01
2013-11-30,50,44,38,46,42,37,99,95,85,30.29,30.15,0,0,0,0.00
2013-12-1,53,50,46,53,50,45,100,99,95,30.14,29.87,3,0,0,0.68
2013-12-2,51,41,34,51,40,33,100,95,86,29.95,29.82,9,1,0,0.82
2013-12-3,39,34,30,36,29,18,100,86,58,30.14,29.94,6,2,0,0.02
2013-12-4,34,30,27,20,17,14,72,61,44,30.21,30.14,10,2,0,0.00
2013-12-5,29,25,22,19,16,12,80,68,58,30.18,30.04,4,0,0,0.00
2013-12-6,25,24,22,22,20,14,94,85,70,30.03,29.81,11,3,0,0.00
2013-12-7,25,21,17,14,8,5,71,58,48,30.31,29.93,11,3,0,0.00
2013-12-8,22,17,9,15,10,4,89,75,61,30.49,30.31,2,0,0,0.00
2013-12-9,27,20,11,21,16,9,91,84,69,30.52,30.43,2,0,0,0.02
2013-12-10,31,26,21,25,22,18,92,87,79,30.44,30.30,3,0,0,0.03
2013-12-11,28,24,17,25,22,15,95,93,87,30.30,30.11,0,0,0,0.00
2013-12-12,36,29,19,36,28,17,99,97,92,30.13,30.02,2,0,0,0.22
2013-12-13,46,41,36,46,41,36,100,100,97,30.32,30.12,1,0,0,0.04
2013-12-14,41,38,36,41,38,36,100,100,99,30.35,30.26,2,0,0,0.01
2013-12-15,45,41,37,45,41,37,100,100,99,30.36,30.31,0,0,0,0.03
2013-12-16,44,41,38,44,41,38,100,98,91,30.35,30.14,7,1,0,0.00
2013-12-17,38,37,36,38,37,36,100,100,100,30.13,30.06,1,0,0,0.01
2013-12-18,41,37,34,41,37,34,100,100,100,30.08,29.94,4,0,0,0.05
2013-12-19,37,33,31,34,31,30,100,92,81,30.20,30.01,6,1,0,0.00
2013-12-20,41,36,31,41,35,30,100,98,97,30.13,29.83,3,0,0,0.16
2013-12-21,49,45,41,49,44,41,100,97,87,30.14,29.87,3,0,0,0.01
2013-12-22,52,47,43,50,45,43,100,96,84,30.25,30.14,1,0,0,0.01
2013-12-23,50,45,39,50,45,38,100,98,87,30.43,30.22,1,0,0,0.10
2013-12-24,42,37,31,41,36,31,100,96,83,30.47,30.37,6,0,0,0.00
2013-12-25,35,33,32,35,33,31,100,100,98,30.37,30.28,3,0,0,0.00
2013-12-26,33,32,30,33,32,30,100,100,100,30.29,30.13,1,0,0,0.00
2013-12-27,35,32,30,35,32,30,100,100,99,30.29,30.10,2,0,0,0.01
2013-12-28,41,36,31,40,35,31,100,95,85,30.39,30.29,7,1,0,0.00
2013-12-29,40,38,34,38,36,34,98,94,88,30.34,30.17,4,0,0,0.00
2013-12-30,40,36,34,38,36,33,100,97,92,30.17,30.09,1,0,0,0.00
2013-12-31,45,41,36,43,40,36,99,95,88,30.22,30.12,2,0,0,0.01
2014-1-1,40,38,35,40,38,35,100,100,98,30.24,30.15,2,0,0,0.01
2014-1-2,44,39,35,44,39,35,100,100,100,30.15,29.96,2,0,0,0.00